Location: Venise Bay
(45.0825°N, 73.1481°W)
Time: 21:51:05
(UTC-05:00)

ISS - Pass Details

Date: 01 December 2021
Orbit: 413 x 422 km, 51.6° (Epoch: 24 January)

Event Time Altitude Azimuth Distance (km) Brightness Sun altitude
Rises 18:49:37 0° 300° (WNW) 2,383 0.9 -27.1°
Reaches altitude 10° 18:51:44 10° 302° (WNW) 1,513 -0.3 -27.5°
Enters shadow 18:52:37 17° 305° (NW) 1,161 -1.0 -27.6°
